Location: Controal
(47.9113°N, 3.5439°W)
Time: 11:21:22
(UTC+00:00)

Daily predictions for brighter satellites

Satellite Brightness Start Highest point End
(mag) Time Altitude Azimuth Time Altitude Azimuth Time Altitude Azimuth
Cosmos 1862 4.0 16:50:32 10° NNW 16:54:29 60° W 16:58:26 10° S
FengYun 1-2 T 4.4 16:49:20 10° SE 16:54:43 52° ENE 17:00:06 10° N
H-2A R/B 3.0 16:51:49 10° ESE 16:55:52 24° ENE 16:59:51 10° N
Cosmos 2034 Rocket 4.2 16:49:59 10° SSE 16:55:53 50° E 17:01:47 10° NNE
ERBS 3.1 16:53:08 10° W 16:56:10 39° NNW 16:59:14 10° NE
MOS 1 Rocket 4.0 16:51:31 10° N 16:56:32 60° WNW 17:01:13 10° SSW
Cosmos 2322 Rocket 4.1 16:55:51 10° NNE 16:57:00 11° NNE 16:58:08 10° NE
USA 306 3.6 16:55:19 10° W 16:59:22 41° NNW 17:03:25 10° ENE
Cosmos 1271 Rocket 3.6 16:57:05 10° SSW 17:00:57 53° WNW 17:04:52 10° N
Meteor 2-19 Rocket 4.4 16:55:08 10° N 17:01:15 74° E 17:07:21 10° SSE
Cosmos 1697 Rocket 2.9 16:56:13 10° NNW 17:01:40 47° NE 17:07:03 10° SE
Cosmos 2369 4.3 16:59:35 10° NNW 17:04:53 36° NE 17:10:08 10° ESE
Cosmos 1980 Rocket 3.0 17:00:18 10° NNW 17:05:17 30° NE 17:10:14 10° ESE
USA 267 3.4 16:59:01 10° NE 17:05:35 75° SE 17:12:07 10° SW
Cosmos 1763 Rocket 3.8 17:02:33 10° S 17:07:20 44° ESE 17:12:11 10° NE
COSMO-SKYMED 1 4.4 17:05:50 10° ENE 17:07:50 13° E 17:09:50 10° ESE
Cosmos 1939 Rocket 3.1 17:05:18 10° SSE 17:09:18 51° ENE 17:13:16 10° N
SL-24 R/B - RUBIN 2 4.4 17:05:51 10° NNW 17:10:01 31° NE 17:13:56 10° ESE
Meteor 1-25 Rocket 4.4 17:05:36 10° N 17:11:01 50° ENE 17:16:27 10° SSE
SL-16 R/B 3.8 17:11:28 10° N 17:14:39 15° NE 17:17:26 11° ENE
Cosmos 1937 Rocket 3.8 17:09:43 10° NNW 17:14:51 45° ENE 17:19:56 10° SE
USA 307 3.7 17:13:41 10° W 17:17:44 39° N 17:21:20 12° ENE
Cosmos 1633 Rocket 4.5 17:15:11 10° NNE 17:18:02 17° ENE 17:20:53 10° ESE
USA 229 DEB 3.9 17:11:52 10° NW 17:19:12 81° NE 17:27:00 10° SE
USA 229 3.9 17:11:58 10° NW 17:19:17 80° NE 17:27:05 10° SE
Cosmos 2082 Rocket 3.3 17:15:59 10° SSE 17:20:25 24° ESE 17:24:28 12° NE
NOAA 6 4.0 17:17:33 10° SSE 17:22:39 69° ENE 17:27:46 10° N
Cosmos 990 Rocket 4.0 17:18:17 10° NNW 17:23:32 90° SE 17:28:41 10° SSE
Cosmos 2026 Rocket 4.2 17:17:53 10° N 17:23:50 48° ENE 17:29:40 10° SSE
Cosmos 1408 Rocket 4.1 17:19:49 10° NNW 17:24:08 64° W 17:28:27 10° S
SeaSat 1 4.4 17:21:29 10° N 17:25:12 22° NW 17:28:55 10° W
Meteor PRIRODA 4.3 17:23:29 10° S 17:27:04 58° WSW 17:30:40 10° NNW
ATLAS 2AS CENTAUR R/B 4.2 17:20:40 10° WNW 17:27:05 27° NNW 17:33:16 10° NE
CZ-4B DEB 4.2 17:21:52 10° SSE 17:27:17 60° ENE 17:32:42 10° N
CORIOLIS 4.1 17:22:01 10° SSE 17:27:22 68° ENE 17:32:46 10° N
USA 276 3.4 17:25:07 10° W 17:28:05 40° SSW 17:31:02 10° SE
Cosmos 372 Rocket 4.4 17:24:14 10° N 17:29:07 39° ENE 17:34:01 10° SE
Cosmos 2278 4.4 17:24:10 10° NNW 17:29:19 33° NE 17:34:25 10° ESE
Cosmos 1602 3.9 17:25:58 10° N 17:29:43 49° ENE 17:33:29 10° SSE
Okean O Rocket 2.6 17:27:01 10° ESE 17:30:38 25° ENE 17:34:16 10° N
Cosmos 1743 Rocket 3.5 17:27:32 10° N 17:31:53 85° E 17:36:13 10° S
ATLAS CENTAUR R/B 3.6 17:28:55 10° WNW 17:32:04 19° NNW 17:35:22 10° NNE
Cosmos 1782 3.4 17:32:19 10° SSE 17:35:59 36° E 17:39:40 10° NNE
Cosmos 1151 Rocket 4.2 17:32:45 10° SE 17:36:06 22° E 17:38:08 16° NE
COSMOS 2406 3.4 17:32:16 10° S 17:37:49 52° ESE 17:43:05 11° NE
COSMOS 2455 3.4 17:34:02 10° S 17:39:33 39° ESE 17:43:55 16° NE
USA 234 3.4 17:33:17 10° SE 17:39:50 78° SW 17:46:24 10° NW
USA 308 3.8 17:36:19 10° WNW 17:40:17 36° N 17:42:51 19° NE
NOSS 3-1 (A) 4.3 17:35:16 10° NW 17:42:45 77° SW 17:51:30 10° SSE
Cosmos 1666 Rocket 4.2 17:39:10 10° N 17:43:13 33° ENE 17:47:12 10° SE
Cosmos 1833 Rocket 2.6 17:38:43 10° SSW 17:44:18 74° ESE 17:49:48 11° NNE
ARGOS 3.6 17:39:21 10° SE 17:44:19 38° ENE 17:49:16 10° N
Cosmos 1340 Rocket 3.8 17:42:03 10° NNW 17:46:01 50° W 17:49:57 10° S
Cosmos 858 Rocket 4.4 17:41:31 10° NNW 17:46:50 73° ENE 17:52:05 10° SSE
SJ 16-02 4.5 17:45:10 10° WNW 17:47:50 16° W 17:50:29 10° SW
ISS -3.7 17:45:03 10° WNW 17:48:26 65° NNE 17:50:10 26° E
NOSS 2-2 (D) 4.2 17:44:18 10° NW 17:49:17 66° NE 17:56:16 10° SE
NOSS 2-2 (E) 4.3 17:44:40 10° NW 17:49:52 78° NE 17:57:12 10° SE
Cosmos 1809 Rocket 4.4 17:45:37 10° N 17:51:45 82° E 17:57:49 10° S
CZ-2D R/B 3.1 17:47:58 10° SSE 17:51:48 70° ENE 17:55:36 10° N
PAYLOAD B 4.2 17:48:41 10° SSE 17:54:17 77° ENE 17:59:54 10° NNW
Lacrosse 5 rocket 2.2 17:51:56 10° NW 17:55:24 30° NNE 17:56:30 26° NE
SKYMED 2 4.1 17:53:45 19° NE 17:56:20 37° E 18:00:22 10° SSE
Meteor 2-21 Rocket 4.4 17:51:48 10° N 17:57:52 60° ENE 18:03:50 10° SSE
Landsat 5 4.3 18:00:26 28° E 18:00:39 28° E 18:04:08 10° SSE
ATLAS CENTAUR R/B 2.8 17:51:00 10° SW 18:00:52 86° SE 18:03:25 26° NE
CZ-4B R/B 3.1 17:55:51 10° SSE 18:01:12 62° ENE 18:06:29 10° N
SL-08 RB Rocket 4.2 17:59:50 10° SE 18:04:04 36° ENE 18:08:16 10° N
Cosmos 1500 3.0 18:00:19 10° N 18:04:05 80° E 18:07:47 10° SSE
Cosmos 540 Rocket 3.3 17:59:01 10° SSW 18:04:06 79° ESE 18:08:24 15° NNE
CZ-2C R/B 2.8 17:59:22 10° NNE 18:04:23 48° E 18:09:21 10° S
GEOS 3 Rocket 4.0 18:02:08 22° E 18:05:03 43° NE 18:09:56 10° NNW
Cosmos 1818 4.1 18:01:44 10° NNW 18:06:54 39° NE 18:09:03 28° E
SMAP 4.2 18:02:26 10° S 18:06:55 47° W 18:11:26 10° NNW
USA 305 3.7 18:03:44 10° WNW 18:07:39 36° N 18:08:55 29° NE
Cosmos 1814 Rocket 4.4 18:03:05 10° S 18:07:59 42° ESE 18:10:08 28° NE
Cosmos 44 Rocket 3.9 18:06:07 10° NNW 18:10:43 37° NE 18:11:46 33° ENE
CZ-4C R/B 2.9 18:04:00 10° NW 18:11:01 67° NE 18:19:20 10° SE
Meteor 1-26 Rocket 4.3 18:05:37 10° S 18:11:34 83° E 18:17:39 10° NNE
Cosmos 1805 Rocket 4.2 18:08:02 10° NNW 18:12:18 58° W 18:16:33 10° S
Cosmos 1933 4.0 18:08:42 10° SSW 18:12:40 57° WNW 18:16:40 10° N
Sich 1 3.2 18:08:33 10° NNW 18:12:50 73° W 18:17:07 10° S
MOS 1-B 4.4 18:08:36 10° SSE 18:14:23 81° WSW 18:20:12 10° NNW
Feng Yun 1-1 Rocket 4.5 18:14:23 10° SE 18:20:05 51° ENE 18:25:45 10° N
Cosmos 2360 Rocket 3.7 18:19:06 10° N 18:22:13 19° NNE 18:22:13 19° NNE
deb Chang Zheng 4 3.5 18:23:58 10° SSE 18:28:17 83° WSW 18:32:37 10° NNW
ERBS 4.4 18:30:31 10° NW 18:32:20 17° NNW 18:32:20 17° NNW
Cosmos 2208 Rocket 4.2 18:27:47 10° S 18:32:56 49° ESE 18:33:46 45° ENE
Cosmos 1666 2.5 18:30:00 10° N 18:33:44 84° W 18:37:26 10° S
H-2A R/B 2.7 18:29:54 10° S 18:34:59 54° W 18:39:58 10° NNW
Cosmos 2142 Rocket 4.4 18:31:14 10° S 18:37:24 90° NW 18:43:40 10° N
Cosmos 2150 Rocket 4.3 18:32:30 10° NNW 18:37:02 44° NE 18:37:02 44° NE
Meteor 1-14 Rocket 4.4 18:34:00 10° NNW 18:39:49 77° W 18:45:43 10° S
USA 306 3.7 18:35:54 10° WNW 18:39:44 38° N 18:39:44 38° N
SJ-11-01 4.4 18:36:37 10° S 18:41:22 75° WSW 18:46:08 10° NNW
Meteor 2-16 Rocket 4.5 18:35:20 10° NNW 18:41:29 80° W 18:47:35 10° S
Cosmos 2322 Rocket 3.0 18:37:39 10° NNW 18:41:55 34° NNE 18:41:55 34° NNE
COSMO-SKYMED 1 2.7 18:42:21 29° N 18:44:31 73° WNW 18:48:50 10° SSW
Cosmos 1697 Rocket 4.5 18:40:32 10° NW 18:45:26 31° WSW 18:50:18 10° SSW
Cosmos 2279 Rocket 4.0 18:40:48 10° S 18:47:01 82° W 18:53:16 10° N
USA 267 3.7 18:45:34 31° NE 18:48:27 52° NNW 18:54:44 10° W
Cosmos 1980 Rocket 2.9 18:44:05 10° NW 18:49:36 55° WSW 18:55:04 10° S
Cosmos 1812 3.4 18:46:49 10° SSW 18:50:35 53° WNW 18:51:36 40° NNW
Cosmos 2266 Rocket 3.9 18:44:20 10° N 18:50:42 68° ENE 18:57:05 10° SSE
Spot 2 4.3 18:51:14 25° SSE 18:54:19 78° ENE 18:59:28 10° NNW
Cosmos 841 Rocket 4.1 18:49:30 10° SW 18:54:32 52° WNW 18:57:22 25° N
Cosmos 1633 Rocket 3.6 18:51:55 10° NNW 18:56:13 56° W 19:00:29 10° S
YAOGAN 1 4.2 18:59:29 24° N 18:59:29 24° N 19:01:15 10° NNW
USA 307 4.0 18:54:14 10° WNW 18:57:22 35° NNW 18:57:22 35° NNW
Cosmos 1125 Rocket 3.8 18:53:21 10° NNW 18:57:27 49° NNE 18:57:27 49° NNE
SL-16 R/B 2.4 18:54:25 10° NNW 18:59:21 54° NNE 18:59:21 54° NNE
Meteor 2-15 Rocket 4.3 18:56:44 10° S 19:02:48 67° E 19:03:20 64° ENE
Cosmos 2082 Rocket 2.6 18:58:27 10° SW 19:04:04 61° WNW 19:06:20 36° N
Okean O Rocket 2.9 19:02:34 10° S 19:06:46 41° W 19:11:01 10° NNW
Cosmos 2333 Rocket 4.1 19:04:25 10° N 19:06:12 17° N 19:06:12 17° N
Cosmos 1151 Rocket 4.3 19:09:23 10° SW 19:13:25 38° WNW 19:15:02 28° NNW
ATLAS 2AS CENTAUR R/B 4.1 19:14:33 10° NW 19:20:35 25° N 19:20:53 25° NNE
Cosmos 1655 Rocket 4.2 19:15:49 10° NNW 19:22:12 71° W 19:28:31 10° S
ISS -0.8 19:22:04 10° W 19:23:11 18° W 19:23:11 18° W
COSMOS 2455 3.7 19:19:39 10° WSW 19:25:25 46° NW 19:27:05 37° N
Lacrosse 5 rocket 3.6 19:30:49 10° NW 19:32:06 20° WNW 19:32:06 20° WNW
Cosmos 2219 Rocket 4.4 19:33:11 10° NNW 19:34:05 14° N 19:34:05 14° N
GEOS 3 Rocket 4.4 19:43:16 47° WSW 19:43:16 47° WSW 19:48:05 10° NW
CZ-2C R/B 4.4 19:40:54 14° NNW 19:44:27 27° WNW 19:48:43 10° WSW
ATLAS 5 CENTAUR R/B 4.3 19:44:30 10° NW 19:47:04 22° WNW 19:47:04 22° WNW
CZ-4C R/B 4.1 19:52:47 10° NW 19:59:34 39° WSW 20:05:33 16° S
Cosmos 2360 Rocket 4.2 20:02:22 10° NNW 20:04:00 20° NNW 20:04:00 20° NNW
Cosmos 2322 Rocket 4.2 20:21:39 10° NW 20:23:46 22° NW 20:23:46 22° NW
